Weather History for Buffalo, WY

Change the Weather History Date:

Tuesday, November 20, 2012

  Actual Average Record
Temperature  
Mean Temperature 47 °F 32 °F  
Max Temperature 61 °F 42 °F 70 °F (2006)
Min Temperature 33 °F 21 °F 6 °F (2010)
Degree Days  
Heating Degree Days 18 33  
Month to date heating degree days 526 572  
Since 1 July heating degree days 1271 1478  
Cooling Degree Days 0 0  
Month to date cooling degree days 0 0  
Year to date cooling degree days 795 492  
Moisture  
Dew Point 26 °F    
Average Humidity 39    
Maximum Humidity 48    
Minimum Humidity 29    
Precipitation  
Precipitation 0.00 in 0.02 in 0.26 in (2003)
Month to date precipitation 0.22 0.35  
Year to date precipitation 8.29 12.86  
Sea Level Pressure  
Sea Level Pressure 29.92 in    
Wind  
Wind Speed 6 mph (SW)    
Max Wind Speed 28 mph    
Max Gust Speed 35 mph    
Visibility 10 miles    
Events      
T = Trace of Precipitation, MM = Missing Value Source: NWS Daily Summary

Daily Weather History Graph

Daily Weather History Graph

Search for Another Location

Airport:

Trip Planner

Search our weather history database for the weather conditions in past years. The results will help you decide how hot, cold, wet, or windy it might be!

Date:

Astronomy

Nov. 20, 2012 Rise Set
Actual Time 7:10 AM MST 4:34 PM MST
Civil Twilight 6:38 AM MST 5:06 PM MST
Nautical Twilight 6:02 AM MST 5:42 PM MST
Astronomical Twilight 5:28 AM MST 6:16 PM MST
Moon 12:37 PM MST (11/20) No Moon Set
Length of Visible Light 10h 28m
Length of Day
9h 24m
First Quarter, 52% of the Moon is Illuminated
Nov 20
First Quarter
Nov 28
Full
Dec 6
Last Quarter
Dec 13
New
Dec 19
First Quarter

Hourly Weather History & Observations

Time (MST) Temp. Windchill Dew Point Humidity Pressure Visibility Wind Dir Wind Speed Gust Speed Precip Events Conditions
1:53 AM 43.0 °F 40.3 °F 21.0 °F 42% 29.94 in 10.0 mi West 4.6 mph - N/A   Unknown
2:53 AM 39.0 °F 33.4 °F 21.0 °F 49% 29.96 in 10.0 mi SSW 8.1 mph - N/A   Unknown
3:53 AM 46.0 °F 43.9 °F 19.9 °F 35% 29.95 in 10.0 mi SSW 4.6 mph - N/A   Unknown
4:53 AM 39.0 °F 34.8 °F 21.0 °F 49% 29.98 in 10.0 mi WSW 5.8 mph - N/A   Unknown
5:53 AM 42.1 °F 37.7 °F 21.0 °F 43% 29.99 in 10.0 mi South 6.9 mph - N/A   Unknown
6:53 AM 41.0 °F 38.0 °F 21.0 °F 45% 29.99 in 10.0 mi SSW 4.6 mph - N/A   Unknown
7:53 AM 39.9 °F 35.8 °F 21.9 °F 49% 30.01 in 10.0 mi South 5.8 mph - N/A   Unknown
8:53 AM 50.0 °F - 24.1 °F 36% 29.96 in 10.0 mi ESE 3.5 mph - N/A   Unknown
9:53 AM 51.1 °F - 26.1 °F 38% 29.97 in 10.0 mi Calm Calm - N/A   Unknown
10:53 AM 50.0 °F - 28.0 °F 43% 29.96 in 10.0 mi SSE 9.2 mph - N/A   Unknown
12:53 PM 52.0 °F - 32.0 °F 47% 29.94 in 10.0 mi West 9.2 mph 16.1 mph N/A   Clear
1:53 PM 52.0 °F - 30.9 °F 45% 29.90 in 10.0 mi Calm Calm - N/A   Clear
2:53 PM 53.1 °F - 30.9 °F 43% 29.90 in 10.0 mi NW 10.4 mph - N/A   Clear
3:53 PM 52.0 °F - 30.0 °F 43% 29.88 in 10.0 mi WSW 4.6 mph - N/A   Clear
4:53 PM 51.1 °F - 30.9 °F 46% 29.91 in 10.0 mi NNW 6.9 mph - N/A   Clear
5:53 PM 50.0 °F - 28.9 °F 44% 29.90 in 10.0 mi South 4.6 mph - N/A   Clear
6:53 PM 60.1 °F - 28.9 °F 31% 29.86 in 10.0 mi WSW 21.9 mph 33.4 mph N/A   Clear
7:53 PM 55.9 °F - 28.9 °F 36% 29.89 in 10.0 mi South 5.8 mph - N/A   Partly Cloudy
8:53 PM 57.9 °F - 28.9 °F 33% 29.83 in 10.0 mi SSW 13.8 mph 19.6 mph N/A   Clear
9:53 PM 53.1 °F - 28.0 °F 38% 29.83 in 10.0 mi NNW 6.9 mph - N/A   Clear
10:53 PM 55.0 °F - 28.0 °F 35% 29.81 in 10.0 mi NW 4.6 mph - N/A   Clear
11:53 PM 57.0 °F - 26.1 °F 30% 29.78 in 10.0 mi North 3.5 mph - N/A   Clear